Home   Weather   Salt Lake City   Past weeks
Flag for USA

Past Weather in Salt Lake City, Utah, USA — Yesterday and Last 2 Weeks

Now
73 °F

Passing clouds.


Feels Like: 77 °F
Forecast: 90 / 68 °F
Wind: 5 mph from Southwest

Location: Salt Lake City International Airport

Current Time: Jul 20, 2019 at 2:11:14 am

Latest Report: Jul 20, 2019 at 12:54 am


Visibility: 10 mi

Pressure: 29.70 "Hg (25.53 "Hg at 1312m altitude)

Humidity: 50%

Dew Point: 53 °F

Location of Salt Lake CityLocation

Past Weather in Salt Lake City — Graph

°F

Salt Lake City Temperature Yesterday

Maximum temperature yesterday: 98 °F (at 2:54 pm)
Minimum temperature yesterday: 75 °F (at 11:54 pm)
Average temperature yesterday: 88 °F

High & Low Weather Summary for the Past Weeks

 TemperatureHumidityPressure
High101 °F (Jul 11, 4:54 pm)78% (Jul 5, 12:54 am)30.09 "Hg (Jul 5, 12:54 am)
Low57 °F (Jul 5, 4:54 am)14% (Jul 7, 1:54 pm)29.59 "Hg (Jul 16, 8:54 pm)
Average82 °F30%29.82 "Hg
* Reported Jul 5 12:54 am — Jul 20 12:54 am, Salt Lake City. Weather by CustomWeather, © 2019

Note: Actual official high and low records may vary slightly from our data, if they occured in-between our weather recording intervals... More about our weather records

Advertising

Salt Lake City Weather History for the Previous 24 Hours

Scroll right to see more
 ConditionsComfort  
Time TempWeatherWind HumidityBarometerVisibility
12:54 am
Sat, Jul 20
73 °FPassing clouds.5 mph50%29.70 "Hg10 mi
11:54 pm
Fri, Jul 19
75 °FPassing clouds.7 mph47%29.68 "Hg10 mi
10:54 pm80 °FPassing clouds.6 mph27%29.65 "Hg10 mi
9:54 pm83 °FPassing clouds.6 mph24%29.63 "Hg10 mi
8:54 pm87 °FPartly sunny.5 mph21%29.62 "Hg10 mi
7:54 pm94 °FScattered clouds.8 mph19%29.61 "Hg10 mi
6:54 pm95 °FScattered clouds.12 mph19%29.62 "Hg10 mi
5:54 pm96 °FPassing clouds.15 mph19%29.63 "Hg10 mi
4:54 pm96 °FPassing clouds.17 mph19%29.64 "Hg10 mi
3:54 pm97 °FPassing clouds.13 mph19%29.64 "Hg10 mi
2:54 pm98 °FPassing clouds.8 mph17%29.65 "Hg10 mi
1:54 pm96 °FPassing clouds.12 mph17%29.67 "Hg10 mi
12:54 pm93 °FPassing clouds.9 mph18%29.70 "Hg10 mi
11:54 am92 °FPassing clouds.14 mph17%29.71 "Hg10 mi
10:54 am90 °FPassing clouds.14 mph18%29.72 "Hg10 mi
9:54 am88 °FPassing clouds.16 mph18%29.73 "Hg10 mi
8:54 am83 °FScattered clouds.9 mph23%29.73 "Hg10 mi
7:54 am81 °FScattered clouds.8 mph23%29.72 "Hg10 mi
6:54 am80 °FScattered clouds.9 mph21%29.70 "Hg10 mi
5:54 am80 °FPassing clouds.6 mph20%29.67 "Hg10 mi
4:54 am81 °FPassing clouds.6 mph19%29.67 "Hg10 mi
3:54 am84 °FPassing clouds.15 mph18%29.63 "Hg10 mi
2:54 am84 °FPassing clouds.12 mph19%29.62 "Hg10 mi
Weather by CustomWeather, © 2019

See weather overview